Location: Stoke Bliss
(52.2667°N, 2.5167°W)
Time: 18:06:25
(UTC+00:00)

SAR-Lupe-4 - Pass Details

Date: 03 March 2021
Orbit: 481 x 485 km, 98.2° (Epoch: 26 March)

Event Time Altitude Azimuth Distance (km) Brightness Sun altitude
Rises 19:37:41 0° 11° (N) 2,558 7.2 -16.7°
Reaches altitude 10° 19:39:47 10° 6° (N) 1,673 6.3 -17.0°
Maximum altitude 19:43:16 52° 290° (WNW) 606 4.4 -17.5°
Drops below altitude 10° 19:46:45 10° 213° (SSW) 1,660 6.5 -18.0°
Sets 19:48:50 0° 209° (SSW) 2,536 7.4 -18.3°
